WetterOnline ( https://www.wetteronline.ch )

Wetter aktuell Freising

Aktuelles Wetter: Weihenstephan-Dürnast (478m)

6-stündlich | Neueste Meldungen
Ortszeit Temperatur Wetter
Sa, 24.08. 8:00 16.8° C wolkenlos
Sa, 24.08. 2:00 16.6° C leicht bewölkt
Fr, 23.08. 20:00 20.8° C bewölkt
Fr, 23.08. 14:00 21.3° C bedeckt
Fr, 23.08. 8:00 14.4° C bewölkt
Fr, 23.08. 2:00 12.2° C wolkenlos
Do, 22.08. 20:00 19.1° C bewölkt
Do, 22.08. 14:00 19.6° C bedeckt
Ortszeit Temperatur Wetter
Sa, 24.08. 9:00 18.9° C wolkenlos
Sa, 24.08. 8:30 18.2° C wolkenlos
Sa, 24.08. 8:20 18.2° C wolkenlos
Sa, 24.08. 8:10 17.8° C wolkenlos
Sa, 24.08. 8:00 16.8° C wolkenlos
Sa, 24.08. 7:50 16.8° C wolkenlos
Sa, 24.08. 7:30 15.6° C leicht bewölkt
Sa, 24.08. 7:00 14.1° C leicht bewölkt
Sa, 24.08. 6:30 14.3° C fast wolkenlos
Sa, 24.08. 6:00 15.1° C leicht bewölkt
Sa, 24.08. 5:30 16.0° C fast wolkenlos
Ortszeit Relative Feuchte Sichtweite
Sa, 24.08. 8:00 88% 8 km
Sa, 24.08. 2:00 91% 8 km
Fr, 23.08. 20:00 74% 13 km
Fr, 23.08. 14:00 65% 12 km
Fr, 23.08. 8:00 96% 4.0 km
Fr, 23.08. 2:00 97% 4.7 km
Do, 22.08. 20:00 69% 19 km
Do, 22.08. 14:00 66% 22 km
Ortszeit Relative Feuchte Sichtweite
Sa, 24.08. 9:00 77% 11 km
Sa, 24.08. 8:30 84% 11 km
Sa, 24.08. 8:20 84% -
Sa, 24.08. 8:10 85% -
Sa, 24.08. 8:00 88% 8 km
Sa, 24.08. 7:50 88% -
Sa, 24.08. 7:30 92% 6 km
Sa, 24.08. 7:00 96% 5.0 km
Sa, 24.08. 6:30 97% 5.0 km
Sa, 24.08. 6:00 94% 8 km
Sa, 24.08. 5:30 90% 10 km
Ortszeit Niederschlagsmenge Niederschlagsart
Sa, 24.08. 8:00 0.0 l/m2 in 12 Std. -
Sa, 24.08. 2:00 0.0 l/m2 in 6 Std. -
Fr, 23.08. 20:00 0.0 l/m2 in 12 Std. -
Fr, 23.08. 14:00 0.0 l/m2 in 6 Std. -
Fr, 23.08. 8:00 0.0 l/m2 in 12 Std. -
Fr, 23.08. 2:00 0.0 l/m2 in 6 Std. -
Do, 22.08. 20:00 0.0 l/m2 in 12 Std. -
Do, 22.08. 14:00 0.1 l/m2 in 6 Std. Niederschlag
Ortszeit Niederschlagsmenge Niederschlagsart
Sa, 24.08. 9:00 0.0 l/m2 in 1 Std. -
Sa, 24.08. 8:30 0.0 l/m2 in 1 Std. -
Sa, 24.08. 8:20 keine Meldung -
Sa, 24.08. 8:10 keine Meldung -
Sa, 24.08. 8:00 0.0 l/m2 in 1 Std. -
Sa, 24.08. 7:50 keine Meldung -
Sa, 24.08. 7:30 0.0 l/m2 in 1 Std. -
Sa, 24.08. 7:00 0.0 l/m2 in 1 Std. -
Sa, 24.08. 6:30 0.0 l/m2 in 1 Std. -
Sa, 24.08. 6:00 0.0 l/m2 in 1 Std. -
Sa, 24.08. 5:30 0.0 l/m2 in 1 Std. -
Ortszeit Stärke Spitze Richtung
km/h Bft. km/h Grad Sektor
Sa, 24.08. 8:00 0 0 11 - -
Sa, 24.08. 2:00 2 1 7 250° W
Fr, 23.08. 20:00 6 1 24 120° SO
Fr, 23.08. 14:00 15 3 24 80° O
Fr, 23.08. 8:00 2 1 6 90° O
Fr, 23.08. 2:00 4 1 7 290° W
Do, 22.08. 20:00 6 1 26 150° SO
Do, 22.08. 14:00 11 2 32 40° NO
Ortszeit Stärke Spitze Richtung
km/h Bft. km/h Grad Sektor
Sa, 24.08. 9:00 13 3 17 90° O
Sa, 24.08. 8:30 4 1 7 70° O
Sa, 24.08. 8:20 4 1 - 70° O
Sa, 24.08. 8:10 2 1 - 80° O
Sa, 24.08. 8:00 0 0 4 - -
Sa, 24.08. 7:50 0 0 - 30° NO
Sa, 24.08. 7:30 0 0 4 - -
Sa, 24.08. 7:00 2 1 4 240° SW
Sa, 24.08. 6:30 0 0 4 - -
Sa, 24.08. 6:00 0 0 7 - -
Sa, 24.08. 5:30 4 1 7 50° NO
Ortszeit Untergrenze Bedeckung Gattung
total tief tief mittel hoch
Sa, 24.08. 8:00 - 0/8 0/8 - - -
Sa, 24.08. 2:00 1260 m 2/8 2/8 - - -
Fr, 23.08. 20:00 1230 m 7/8 6/8 - - -
Fr, 23.08. 14:00 840 m 8/8 8/8 - - -
Fr, 23.08. 8:00 1320 m 7/8 7/8 - - -
Fr, 23.08. 2:00 - 0/8 0/8 - - -
Do, 22.08. 20:00 1260 m 7/8 7/8 - - -
Do, 22.08. 14:00 870 m 8/8 8/8 - - -
Ortszeit Bedeckungsgrad in Achtel und Wolkenuntergrenze
Sa, 24.08. 9:00 keine Wolken
Sa, 24.08. 8:30 keine Wolken
Sa, 24.08. 8:20 keine Wolken
Sa, 24.08. 8:10 keine Wolken
Sa, 24.08. 8:00 keine Wolken
Sa, 24.08. 7:50 keine Wolken
Sa, 24.08. 7:30 6(9000m)
Sa, 24.08. 7:00 1(6300m) 4(9000m)
Sa, 24.08. 6:30 2(10500m)
Sa, 24.08. 6:00 2(5400m)
Sa, 24.08. 5:30 1(10500m)
Ortszeit Luftdruck NN (hPa) Tendenz (hPa in 3 Std.)
Sa, 24.08. 8:00 1021 - 0,1
Sa, 24.08. 2:00 1022 - 1,1
Fr, 23.08. 20:00 1022 - 0,4
Fr, 23.08. 14:00 1024 - 0,6
Fr, 23.08. 8:00 1026 + 0,2
Fr, 23.08. 2:00 1027 - 0,4
Do, 22.08. 20:00 1024 + 0,4
Do, 22.08. 14:00 1024 - 0,4
Ortszeit Luftdruck NN (hPa) Tendenz (hPa in 3 Std.)
Sa, 24.08. 9:00 1020 - 0,2
Sa, 24.08. 8:30 1020 0,0
Sa, 24.08. 8:20 1020 keine Meldung
Sa, 24.08. 8:10 1021 keine Meldung
Sa, 24.08. 8:00 1021 - 0,1
Sa, 24.08. 7:50 1021 keine Meldung
Sa, 24.08. 7:30 1021 - 0,3
Sa, 24.08. 7:00 1021 - 0,2
Sa, 24.08. 6:30 1021 - 0,4
Sa, 24.08. 6:00 1021 - 0,4
Sa, 24.08. 5:30 1021 - 0,7
Ortszeit Schneehöhe (cm)
Sa, 24.08. 8:00 -
Sa, 24.08. 2:00 -
Fr, 23.08. 20:00 -
Fr, 23.08. 14:00 -
Fr, 23.08. 8:00 -
Fr, 23.08. 2:00 -
Do, 22.08. 20:00 -
Do, 22.08. 14:00 -
Ortszeit Schneehöhe (cm)
Sa, 24.08. 9:00 -
Sa, 24.08. 8:30 -
Sa, 24.08. 8:20 -
Sa, 24.08. 8:10 -
Sa, 24.08. 8:00 -
Sa, 24.08. 7:50 -
Sa, 24.08. 7:30 -
Sa, 24.08. 7:00 -
Sa, 24.08. 6:30 -
Sa, 24.08. 6:00 -
Sa, 24.08. 5:30 -
Link zu dieser Seite / Seite empfehlen

Das Wetter in ...